Weather History for Paynesville, MN

Change the Weather History Date:

Friday, July 19, 2013

  Actual Average (KLJF) Record (KLJF)
Temperature  
Mean Temperature 72 °F -  
Max Temperature 82 °F 85 °F 99 °F (1977)
Min Temperature 62 °F 62 °F 50 °F (1948)
Cooling Degree Days 7    
Growing Degree Days 22 (Base 50)    
Moisture  
Dew Point 61 °F    
Average Humidity 64    
Maximum Humidity 94    
Minimum Humidity 40    
Precipitation  
Precipitation 0.05 in - - ()
Sea Level Pressure  
Sea Level Pressure 29.87 in    
Wind  
Wind Speed 9 mph (WNW)    
Max Wind Speed 16 mph    
Max Gust Speed 29 mph    
Visibility 10 miles    
Events Rain , Thunderstorm    
Averages and records for this station are not official NWS values.
T = Trace of Precipitation, MM = Missing Value Source: NWS Daily Summary

Daily Weather History Graph

Daily Weather History Graph

Search for Another Location

Airport:

Trip Planner

Search our weather history database for the weather conditions in past years. The results will help you decide how hot, cold, wet, or windy it might be!

Date:

Astronomy

Jul. 19, 2013 Rise Set
Actual Time 5:49 AM CDT 9:00 PM CDT
Civil Twilight 5:13 AM CDT 9:36 PM CDT
Nautical Twilight 4:27 AM CDT 10:22 PM CDT
Astronomical Twilight 3:30 AM CDT 11:18 PM CDT
Moon 6:03 PM CDT (7/19) 2:32 AM CDT (7/19)
Length of Visible Light 16h 22m
Length of Day
15h 11m
Waxing Gibbous, 87% of the Moon is Illuminated
Jul 19
Waxing Gibbous
Jul 22
Full
Jul 29
Last Quarter
Aug 6
New
Aug 14
First Quarter

Hourly Weather History & Observations

Time (CDT) Temp. Heat Index Dew Point Humidity Pressure Visibility Wind Dir Wind Speed Gust Speed Precip Events Conditions
12:12 AM 81.0 °F 83.8 °F 68.4 °F 65% 29.77 in 10.0 mi SW 10.4 mph - N/A   Scattered Clouds
12:33 AM 81.5 °F 84.4 °F 68.4 °F 64% 29.78 in 10.0 mi WSW 15.0 mph 25.3 mph N/A   Scattered Clouds
12:53 AM 77.0 °F - 70.9 °F 81% 29.78 in 10.0 mi WSW 9.2 mph - N/A   Clear
1:13 AM 77.9 °F - 70.7 °F 78% 29.77 in 10.0 mi West 6.9 mph - N/A   Clear
1:33 AM 76.1 °F - 71.1 °F 84% 29.78 in 10.0 mi West 8.1 mph - N/A   Clear
1:53 AM 76.1 °F - 70.7 °F 83% 29.78 in 10.0 mi West 5.8 mph - N/A   Clear
2:13 AM 75.7 °F - 70.7 °F 84% 29.79 in 10.0 mi WSW 6.9 mph - N/A   Clear
2:33 AM 75.0 °F - 70.7 °F 86% 29.78 in 10.0 mi West 5.8 mph - N/A   Clear
2:53 AM 73.2 °F - 70.2 °F 90% 29.77 in 10.0 mi West 3.5 mph - N/A   Clear
3:13 AM 71.8 °F - 69.6 °F 93% 29.77 in 10.0 mi WSW 4.6 mph - N/A   Clear
3:33 AM 71.2 °F - 69.3 °F 93% 29.77 in 10.0 mi WSW 4.6 mph - N/A   Clear
3:53 AM 70.9 °F - 68.9 °F 93% 29.77 in 10.0 mi West 5.8 mph - N/A   Scattered Clouds
4:13 AM 72.5 °F - 68.2 °F 86% 29.77 in 10.0 mi West 4.6 mph - N/A   Scattered Clouds
4:33 AM 70.7 °F - 67.1 °F 88% 29.77 in 10.0 mi West 5.8 mph - N/A   Clear
4:52 AM 71.6 °F - 65.7 °F 81% 29.77 in 10.0 mi West 10.4 mph - N/A   Clear
5:13 AM 72.5 °F - 63.5 °F 73% 29.78 in 10.0 mi West 8.1 mph - N/A   Clear
5:33 AM 71.8 °F - 62.6 °F 73% 29.79 in 10.0 mi WNW 11.5 mph - N/A   Clear
5:53 AM 71.6 °F - 62.2 °F 72% 29.80 in 10.0 mi WNW 9.2 mph 16.1 mph N/A   Clear
6:12 AM 70.7 °F - 62.6 °F 75% 29.81 in 10.0 mi WNW 9.2 mph - N/A   Clear
6:33 AM 70.2 °F - 62.6 °F 77% 29.82 in 10.0 mi WNW 10.4 mph - N/A   Clear
6:53 AM 70.7 °F - 62.4 °F 75% 29.82 in 10.0 mi WNW 10.4 mph - N/A   Clear
7:12 AM 70.7 °F - 62.2 °F 75% 29.83 in 10.0 mi WNW 11.5 mph - N/A   Clear
7:33 AM 71.1 °F - 62.2 °F 74% 29.84 in 10.0 mi WNW 8.1 mph 16.1 mph N/A   Clear
7:53 AM 71.6 °F - 61.7 °F 71% 29.84 in 10.0 mi WNW 10.4 mph 16.1 mph N/A   Clear
8:12 AM 72.0 °F - 60.8 °F 68% 29.85 in 10.0 mi NW 12.7 mph 18.4 mph N/A   Clear
8:33 AM 72.5 °F - 61.5 °F 68% 29.86 in 10.0 mi WNW 16.1 mph 20.7 mph N/A   Clear
8:53 AM 71.8 °F - 60.8 °F 68% 29.88 in 10.0 mi NW 10.4 mph 17.3 mph N/A   Scattered Clouds
9:12 AM 71.8 °F - 60.6 °F 68% 29.88 in 10.0 mi NW 12.7 mph 18.4 mph N/A   Scattered Clouds
9:33 AM 73.8 °F - 61.5 °F 65% 29.89 in 10.0 mi NW 9.2 mph 16.1 mph N/A   Scattered Clouds
9:53 AM 73.6 °F - 60.3 °F 63% 29.89 in 10.0 mi NW 12.7 mph 19.6 mph N/A   Clear
10:13 AM 74.1 °F - 58.5 °F 58% 29.89 in 10.0 mi NW 12.7 mph 20.7 mph N/A   Clear
10:33 AM 74.7 °F - 58.6 °F 57% 29.90 in 10.0 mi NW 10.4 mph 18.4 mph N/A   Clear
10:52 AM 76.3 °F - 59.4 °F 56% 29.90 in 10.0 mi NW 10.4 mph - N/A   Clear
11:13 AM 76.3 °F - 57.9 °F 53% 29.91 in 10.0 mi NNW 12.7 mph 17.3 mph N/A   Clear
11:33 AM 76.8 °F - 57.2 °F 51% 29.91 in 10.0 mi NW 11.5 mph 16.1 mph N/A   Clear
11:53 AM 77.5 °F - 55.8 °F 47% 29.92 in 10.0 mi NW 10.4 mph 16.1 mph N/A   Clear
12:13 PM 78.4 °F - 55.8 °F 45% 29.92 in 10.0 mi WNW 9.2 mph - N/A   Clear
12:33 PM 78.8 °F - 54.7 °F 43% 29.92 in 10.0 mi NNW 8.1 mph 18.4 mph N/A   Clear
12:53 PM 79.7 °F - 54.5 °F 42% 29.92 in 10.0 mi NW 10.4 mph 18.4 mph N/A   Clear
1:12 PM 80.2 °F 80.4 °F 55.9 °F 43% 29.92 in 10.0 mi WNW 6.9 mph - N/A   Clear
1:33 PM 81.0 °F 80.8 °F 55.6 °F 42% 29.92 in 10.0 mi West 11.5 mph 18.4 mph N/A   Clear
1:53 PM 81.1 °F 81.1 °F 56.7 °F 43% 29.91 in 10.0 mi WNW 9.2 mph - N/A   Clear
2:12 PM 81.7 °F 81.4 °F 56.7 °F 42% 29.91 in 10.0 mi WNW 13.8 mph 17.3 mph N/A   Clear
2:33 PM 81.5 °F 81.1 °F 55.6 °F 41% 29.91 in 10.0 mi NW 11.5 mph 17.3 mph N/A   Clear
2:53 PM 81.7 °F 81.2 °F 55.4 °F 40% 29.92 in 10.0 mi WNW 11.5 mph - N/A   Clear
3:13 PM 81.7 °F 81.3 °F 55.6 °F 41% 29.92 in 10.0 mi WNW 13.8 mph - N/A   Scattered Clouds
3:33 PM 81.0 °F 80.7 °F 55.0 °F 41% 29.91 in 10.0 mi WNW 13.8 mph 19.6 mph N/A   Scattered Clouds
3:53 PM 81.0 °F 80.9 °F 56.5 °F 43% 29.91 in 10.0 mi NW 11.5 mph 18.4 mph N/A   Clear
4:12 PM 81.3 °F 81.1 °F 56.3 °F 42% 29.91 in 10.0 mi WNW 10.4 mph 20.7 mph N/A   Clear
4:33 PM 80.8 °F 80.7 °F 55.8 °F 42% 29.91 in 10.0 mi NW 11.5 mph 17.3 mph N/A   Clear
4:52 PM 81.5 °F 81.4 °F 56.8 °F 43% 29.91 in 10.0 mi WNW 8.1 mph - N/A   Scattered Clouds
5:13 PM 81.1 °F 81.2 °F 57.4 °F 44% 29.90 in 10.0 mi WNW 10.4 mph 16.1 mph N/A   Scattered Clouds
5:33 PM 80.8 °F 81.0 °F 57.7 °F 45% 29.90 in 10.0 mi WNW 9.2 mph - N/A   Scattered Clouds
5:52 PM 80.6 °F 80.6 °F 55.9 °F 43% 29.90 in 10.0 mi NW 9.2 mph 17.3 mph N/A   Scattered Clouds
6:13 PM 80.6 °F 80.8 °F 57.4 °F 45% 29.89 in 10.0 mi NW 6.9 mph - N/A   Clear
6:33 PM 79.9 °F - 56.5 °F 45% 29.89 in 10.0 mi NW 8.1 mph - N/A   Clear
6:53 PM 79.9 °F - 56.3 °F 44% 29.89 in 10.0 mi West 9.2 mph - N/A   Clear
7:13 PM 79.0 °F - 56.5 °F 46% 29.89 in 10.0 mi West 4.6 mph - N/A   Clear
7:33 PM 78.4 °F - 58.3 °F 50% 29.88 in 10.0 mi West 3.5 mph - N/A   Clear
7:53 PM 77.5 °F - 59.0 °F 53% 29.89 in 10.0 mi Calm Calm - N/A   Clear
8:13 PM 75.9 °F - 60.8 °F 59% 29.89 in 10.0 mi Calm Calm - N/A   Clear
8:33 PM 74.8 °F - 60.4 °F 61% 29.89 in 10.0 mi Calm Calm - N/A   Clear
8:52 PM 73.4 °F - 60.4 °F 64% 29.89 in 10.0 mi Calm Calm - N/A   Clear
9:13 PM 70.9 °F - 61.7 °F 73% 29.89 in 10.0 mi Calm Calm - N/A   Clear
9:33 PM 70.7 °F - 61.5 °F 73% 29.90 in 10.0 mi Calm Calm - N/A   Clear
9:52 PM 70.0 °F - 62.1 °F 76% 29.90 in 10.0 mi Calm Calm - N/A   Scattered Clouds
10:13 PM 65.5 °F - 60.1 °F 83% 29.95 in 7.0 mi NNW 10.4 mph 28.8 mph 0.03 in Rain , Thunderstorm Heavy Thunderstorms and Rain
10:32 PM 63.5 °F - 61.5 °F 93% 29.94 in 10.0 mi Calm Calm - 0.05 in Rain Light Rain
10:53 PM 63.1 °F - 60.8 °F 92% 29.94 in 10.0 mi Calm Calm - 0.05 in   Mostly Cloudy
11:13 PM 63.0 °F - 61.0 °F 93% 29.93 in 10.0 mi Calm Calm - N/A Thunderstorm Mostly Cloudy
11:33 PM 63.0 °F - 61.2 °F 94% 29.92 in 10.0 mi Calm Calm - N/A   Mostly Cloudy
11:53 PM 62.8 °F - 61.0 °F 94% 29.92 in 10.0 mi Calm Calm - N/A   Scattered Clouds